Location: Gad�tanya
(48.0500°N, 20.8500°E)
Time: 11:23:51
(UTC+00:00)

Cosmos 1782 - Pass Details

Date: 05 July 2020
Orbit: 537 x 552 km, 82.5° (Epoch: 14 August)

Event Time Altitude Azimuth Distance (km) Brightness Sun altitude
Rises 22:16:25 0° 356° (N) 2,705 8.0 -19.1°
Reaches altitude 10° 22:18:40 10° 3° (N) 1,807 6.7 -19.1°
Maximum altitude 22:22:28 44° 76° (ENE) 756 3.5 -19.2°
Enters shadow 22:23:36 34° 119° (ESE) 896 3.6 -19.2°
